WAT3630 SBFL-SUMU

Flight info

Callsign WAT3630
Flight time N/A
Altitude 36000
Route UGREV UN857 MIMOL UM792 TELAK
Aircraft A21N/M-SDE3FGHIRWY/LB1

Departure

Time 2026-04-25 23:28
Airport Hercílio Luz International Airport (SBFL)

Arrival

Time N/A
Airport Carrasco General Cesáreo L. Berisso International Airport (SUMU)
Time Latitude Longitude Altitude Speed Heading
2026-04-25 23:13 -27.67241 -48.54607 31 ft 0 kts 213°
2026-04-25 23:21 -27.67239 -48.54606 31 ft 2 kts 213°
2026-04-25 23:21 -27.67228 -48.54594 31 ft 2 kts 241°
2026-04-25 23:22 -27.67223 -48.54578 31 ft 2 kts 261°
2026-04-25 23:22 -27.67223 -48.54561 31 ft 2 kts 283°
2026-04-25 23:22 -27.67227 -48.54549 31 ft 0 kts 300°
2026-04-25 23:23 -27.67231 -48.54542 31 ft 0 kts 303°
2026-04-25 23:24 -27.67230 -48.54543 31 ft 0 kts 303°
2026-04-25 23:24 -27.67226 -48.54551 31 ft 1 kts 303°
2026-04-25 23:24 -27.67218 -48.54564 31 ft 2 kts 303°
2026-04-25 23:24 -27.67206 -48.54585 31 ft 3 kts 306°
2026-04-25 23:25 -27.67186 -48.54606 31 ft 6 kts 328°
2026-04-25 23:25 -27.67127 -48.54615 31 ft 9 kts
2026-04-25 23:25 -27.67061 -48.54612 31 ft 9 kts 348°
2026-04-25 23:25 -27.66996 -48.54684 31 ft 15 kts 301°
2026-04-25 23:26 -27.66941 -48.54787 31 ft 15 kts 301°
2026-04-25 23:26 -27.66886 -48.54892 31 ft 15 kts 301°
2026-04-25 23:26 -27.66829 -48.54998 31 ft 15 kts 301°
2026-04-25 23:26 -27.66768 -48.55093 33 ft 14 kts 320°
2026-04-25 23:27 -27.66680 -48.55139 34 ft 13 kts 342°
2026-04-25 23:27 -27.66593 -48.55131 34 ft 13 kts 57°
2026-04-25 23:27 -27.66620 -48.55030 32 ft 18 kts 118°
2026-04-25 23:27 -27.66824 -48.54647 31 ft 94 kts 122°
2026-04-25 23:28 -27.67279 -48.53809 30 ft 156 kts 121°
2026-04-25 23:28 -27.67898 -48.52653 392 ft 176 kts 121°
2026-04-25 23:28 -27.68537 -48.51467 1017 ft 183 kts 121°
2026-04-25 23:28 -27.69209 -48.50230 1741 ft 188 kts 121°
2026-04-25 23:29 -27.69976 -48.49057 2415 ft 193 kts 141°
2026-04-25 23:29 -27.71260 -48.48588 2916 ft 204 kts 186°
2026-04-25 23:29 -27.72608 -48.49114 3485 ft 214 kts 205°
2026-04-25 23:29 -27.74047 -48.49768 3919 ft 235 kts 201°
2026-04-25 23:30 -27.75683 -48.50335 4383 ft 257 kts 197°
2026-04-25 23:30 -27.77474 -48.50793 5019 ft 270 kts 198°
2026-04-25 23:30 -27.79233 -48.51493 5972 ft 267 kts 208°
2026-04-25 23:30 -27.80935 -48.52316 6775 ft 272 kts 207°
2026-04-25 23:31 -27.82714 -48.53094 7606 ft 276 kts 205°
2026-04-25 23:31 -27.84503 -48.53827 8423 ft 279 kts 205°
2026-04-25 23:31 -27.86335 -48.54560 9244 ft 279 kts 207°
2026-04-25 23:31 -27.88021 -48.55587 10005 ft 276 kts 220°
2026-04-25 23:32 -27.89459 -48.57009 10648 ft 279 kts 230°
2026-04-25 23:32 -27.90835 -48.58645 11012 ft 296 kts 231°
2026-04-25 23:32 -27.92278 -48.60396 11333 ft 313 kts 231°
2026-04-25 23:32 -27.93803 -48.62247 11637 ft 331 kts 230°
2026-04-25 23:33 -27.95424 -48.64204 11938 ft 347 kts 230°
2026-04-25 23:33 -27.97105 -48.66227 12432 ft 356 kts 230°
2026-04-25 23:33 -27.98788 -48.68248 13096 ft 358 kts 230°
2026-04-25 23:33 -28.00503 -48.70306 13762 ft 361 kts 230°
2026-04-25 23:34 -28.02240 -48.72390 14418 ft 363 kts 230°
2026-04-25 23:34 -28.03964 -48.74462 15066 ft 365 kts 230°
2026-04-25 23:34 -28.05692 -48.76538 15692 ft 367 kts 230°
2026-04-25 23:34 -28.07455 -48.78659 16349 ft 368 kts 230°
2026-04-25 23:35 -28.09200 -48.80761 16958 ft 370 kts 230°
2026-04-25 23:35 -28.10961 -48.82882 17567 ft 371 kts 230°
2026-04-25 23:35 -28.12725 -48.85009 18086 ft 375 kts 231°
2026-04-25 23:35 -28.14523 -48.87177 18515 ft 380 kts 231°
2026-04-25 23:36 -28.16324 -48.89350 19012 ft 383 kts 231°
2026-04-25 23:36 -28.18164 -48.91573 19524 ft 386 kts 231°
2026-04-25 23:36 -28.19992 -48.93781 20001 ft 389 kts 232°
2026-04-25 23:36 -28.21858 -48.96036 20453 ft 392 kts 232°
2026-04-25 23:37 -28.23713 -48.98322 20915 ft 394 kts 233°
2026-04-25 23:37 -28.25542 -49.00625 21362 ft 396 kts 233°
2026-04-25 23:37 -28.27379 -49.02943 21806 ft 398 kts 234°
2026-04-25 23:37 -28.29251 -49.05287 22210 ft 402 kts 233°
2026-04-25 23:38 -28.31144 -49.07632 22629 ft 404 kts 233°
2026-04-25 23:38 -28.33057 -49.10001 23079 ft 405 kts 234°
2026-04-25 23:38 -28.34947 -49.12343 23510 ft 407 kts 234°
2026-04-25 23:38 -28.36866 -49.14724 23964 ft 407 kts 234°
2026-04-25 23:39 -28.38774 -49.17094 24424 ft 407 kts 234°
2026-04-25 23:39 -28.40670 -49.19450 24825 ft 408 kts 234°
2026-04-25 23:39 -28.42572 -49.21821 25204 ft 409 kts 234°
2026-04-25 23:39 -28.44494 -49.24215 25581 ft 410 kts 234°
2026-04-25 23:40 -28.46417 -49.26610 25978 ft 410 kts 234°
2026-04-25 23:40 -28.48336 -49.28994 26490 ft 407 kts 235°
2026-04-25 23:40 -28.50224 -49.31342 27012 ft 403 kts 235°
2026-04-25 23:40 -28.52090 -49.33660 27505 ft 399 kts 236°
2026-04-25 23:41 -28.53965 -49.35999 27987 ft 396 kts 236°
2026-04-25 23:41 -28.55799 -49.38289 28487 ft 392 kts 236°
2026-04-25 23:41 -28.57621 -49.40564 28963 ft 388 kts 236°
2026-04-25 23:41 -28.59422 -49.42813 29383 ft 386 kts 236°
2026-04-25 23:42 -28.61246 -49.45100 29787 ft 385 kts 237°
2026-04-25 23:42 -28.63024 -49.47331 30169 ft 384 kts 236°
2026-04-25 23:42 -28.64824 -49.49589 30536 ft 383 kts 236°
2026-04-25 23:42 -28.66600 -49.51815 30924 ft 381 kts 236°
2026-04-25 23:43 -28.68369 -49.54034 31291 ft 379 kts 236°
2026-04-25 23:43 -28.70147 -49.56265 31666 ft 377 kts 236°
2026-04-25 23:43 -28.71888 -49.58453 32015 ft 376 kts 237°
2026-04-25 23:43 -28.73637 -49.60652 32336 ft 374 kts 236°
2026-04-25 23:44 -28.75386 -49.62848 32672 ft 372 kts 236°
2026-04-25 23:44 -28.77105 -49.65010 32988 ft 371 kts 237°
2026-04-25 23:44 -28.78834 -49.67188 33341 ft 369 kts 237°
2026-04-25 23:44 -28.80541 -49.69338 33685 ft 368 kts 237°
2026-04-25 23:45 -28.82276 -49.71526 34028 ft 367 kts 237°
2026-04-25 23:45 -28.83974 -49.73665 34389 ft 365 kts 237°
2026-04-25 23:45 -28.85663 -49.75799 34659 ft 365 kts 237°
2026-04-25 23:45 -28.87369 -49.77951 34874 ft 366 kts 237°
2026-04-25 23:46 -28.89071 -49.80098 35053 ft 367 kts 237°
2026-04-25 23:46 -28.90793 -49.82256 35268 ft 368 kts 236°
2026-04-25 23:46 -28.92569 -49.84385 35453 ft 369 kts 235°
2026-04-25 23:46 -28.94346 -49.86496 35650 ft 370 kts 235°
2026-04-25 23:47 -28.96110 -49.88591 35868 ft 369 kts 236°
2026-04-25 23:47 -28.97903 -49.90723 36031 ft 370 kts 236°
2026-04-25 23:47 -28.99683 -49.92845 36040 ft 370 kts 236°
2026-04-25 23:48 -29.03223 -49.97074 36047 ft 370 kts 235°
2026-04-25 23:48 -29.06791 -50.01342 36046 ft 371 kts 236°
2026-04-25 23:49 -29.10328 -50.05580 36042 ft 369 kts 236°
2026-04-25 23:49 -29.13883 -50.09848 36036 ft 369 kts 236°
2026-04-25 23:50 -29.17409 -50.14080 36042 ft 369 kts 236°
2026-04-25 23:50 -29.20942 -50.18330 36033 ft 367 kts 236°
2026-04-25 23:51 -29.24447 -50.22549 36038 ft 367 kts 236°
2026-04-25 23:51 -29.27959 -50.26783 36041 ft 368 kts 236°
2026-04-25 23:52 -29.31475 -50.31022 36039 ft 367 kts 236°
2026-04-25 23:52 -29.34999 -50.35283 36034 ft 367 kts 236°
2026-04-25 23:53 -29.38500 -50.39513 36031 ft 366 kts 236°
2026-04-25 23:53 -29.42003 -50.43756 36032 ft 366 kts 236°
2026-04-25 23:54 -29.45514 -50.48015 36027 ft 366 kts 236°
2026-04-25 23:54 -29.48999 -50.52239 36023 ft 366 kts 237°
2026-04-25 23:55 -29.52496 -50.56490 36019 ft 365 kts 236°
2026-04-25 23:55 -29.55906 -50.60770 36012 ft 364 kts 237°
2026-04-25 23:56 -29.59312 -50.65094 36003 ft 364 kts 238°
2026-04-25 23:56 -29.62697 -50.69392 35980 ft 362 kts 238°
2026-04-25 23:57 -29.66081 -50.73690 35973 ft 361 kts 238°
2026-04-25 23:57 -29.69436 -50.77953 35965 ft 361 kts 238°
2026-04-25 23:58 -29.72823 -50.82262 35964 ft 361 kts 238°
2026-04-25 23:58 -29.76181 -50.86538 35958 ft 361 kts 238°
2026-04-25 23:59 -29.79530 -50.90809 35964 ft 361 kts 238°
2026-04-25 23:59 -29.82908 -50.95122 35961 ft 360 kts 238°
2026-04-26 00:00 -29.86253 -50.99397 35966 ft 358 kts 238°
2026-04-26 00:00 -29.89588 -51.03665 35965 ft 357 kts 238°
2026-04-26 00:01 -29.92928 -51.07942 35968 ft 358 kts 238°
2026-04-26 00:01 -29.96239 -51.12190 35956 ft 358 kts 238°
2026-04-26 00:02 -29.99563 -51.16456 35959 ft 356 kts 239°
2026-04-26 00:02 -30.02872 -51.20714 35955 ft 356 kts 239°
2026-04-26 00:03 -30.06170 -51.24966 35956 ft 356 kts 238°
2026-04-26 00:03 -30.09455 -51.29210 35956 ft 355 kts 239°
2026-04-26 00:04 -30.12754 -51.33476 35954 ft 355 kts 239°
2026-04-26 00:04 -30.16032 -51.37718 35955 ft 355 kts 239°
2026-04-26 00:05 -30.19306 -51.41963 35955 ft 355 kts 239°
2026-04-26 00:05 -30.22602 -51.46240 35953 ft 355 kts 239°
2026-04-26 00:06 -30.25873 -51.50493 35957 ft 354 kts 239°
2026-04-26 00:06 -30.29155 -51.54762 35957 ft 353 kts 239°
2026-04-26 00:07 -30.32418 -51.59007 35958 ft 353 kts 239°
2026-04-26 00:07 -30.35682 -51.63258 35958 ft 354 kts 239°
2026-04-26 00:08 -30.38939 -51.67512 35961 ft 354 kts 239°
2026-04-26 00:08 -30.42219 -51.71797 35963 ft 352 kts 239°
2026-04-26 00:09 -30.45496 -51.76049 35966 ft 356 kts 239°
2026-04-26 00:09 -30.48883 -51.80225 35966 ft 356 kts 238°
2026-04-26 00:10 -30.52249 -51.84371 35971 ft 354 kts 238°
2026-04-26 00:10 -30.55632 -51.88549 35975 ft 354 kts 239°
2026-04-26 00:11 -30.59020 -51.92744 35977 ft 355 kts 239°
2026-04-26 00:11 -30.62378 -51.96915 35976 ft 355 kts 239°
2026-04-26 00:12 -30.65773 -52.01129 35977 ft 355 kts 239°
2026-04-26 00:12 -30.69109 -52.05280 35973 ft 353 kts 239°
2026-04-26 00:13 -30.72463 -52.09451 35970 ft 354 kts 239°
2026-04-26 00:13 -30.75824 -52.13635 35963 ft 354 kts 239°
2026-04-26 00:14 -30.79177 -52.17817 35963 ft 354 kts 239°
2026-04-26 00:14 -30.82542 -52.22020 35958 ft 354 kts 239°
2026-04-26 00:15 -30.85884 -52.26194 35962 ft 354 kts 239°
2026-04-26 00:15 -30.89245 -52.30396 35956 ft 353 kts 239°
2026-04-26 00:16 -30.92544 -52.34621 35959 ft 353 kts 240°
2026-04-26 00:16 -30.95833 -52.38877 35957 ft 352 kts 240°
2026-04-26 00:17 -30.99103 -52.43109 35957 ft 353 kts 240°
2026-04-26 00:17 -31.02375 -52.47349 35959 ft 352 kts 240°
2026-04-26 00:18 -31.05634 -52.51573 35958 ft 351 kts 240°
2026-04-26 00:18 -31.08899 -52.55806 35962 ft 352 kts 240°
2026-04-26 00:19 -31.12168 -52.60054 35968 ft 353 kts 240°
2026-04-26 00:19 -31.15429 -52.64295 35966 ft 351 kts 240°
2026-04-26 00:20 -31.18695 -52.68550 35973 ft 353 kts 241°
2026-04-26 00:20 -31.21955 -52.72800 35974 ft 353 kts 241°
2026-04-26 00:21 -31.25218 -52.77061 35974 ft 351 kts 240°
2026-04-26 00:21 -31.28469 -52.81313 35974 ft 352 kts 241°
2026-04-26 00:22 -31.31726 -52.85579 35975 ft 352 kts 240°
2026-04-26 00:22 -31.34991 -52.89847 35968 ft 353 kts 240°
2026-04-26 00:23 -31.38255 -52.94120 35956 ft 353 kts 241°
2026-04-26 00:23 -31.41529 -52.98412 35957 ft 353 kts 240°
2026-04-26 00:24 -31.44808 -53.02717 35957 ft 353 kts 240°
2026-04-26 00:24 -31.48063 -53.06997 35959 ft 352 kts 240°
2026-04-26 00:25 -31.51313 -53.11277 35955 ft 354 kts 240°
2026-04-26 00:25 -31.54573 -53.15574 35960 ft 353 kts 240°
2026-04-26 00:26 -31.57838 -53.19880 35961 ft 354 kts 241°
2026-04-26 00:26 -31.61105 -53.24197 35965 ft 353 kts 240°
2026-04-26 00:27 -31.64362 -53.28498 35969 ft 353 kts 241°
2026-04-26 00:27 -31.67638 -53.32840 35968 ft 354 kts 240°
2026-04-26 00:28 -31.70883 -53.37141 35969 ft 352 kts 240°
2026-04-26 00:28 -31.74126 -53.41441 35970 ft 353 kts 240°
2026-04-26 00:29 -31.77401 -53.45795 35967 ft 353 kts 241°
2026-04-26 00:29 -31.80638 -53.50101 35966 ft 355 kts 240°
2026-04-26 00:30 -31.83268 -53.53605 35968 ft 353 kts 240°
2026-04-26 00:30 -31.86507 -53.57917 35965 ft 354 kts 240°
2026-04-26 00:31 -31.89764 -53.62262 35963 ft 355 kts 240°
2026-04-26 00:31 -31.93025 -53.66622 35965 ft 354 kts 241°
2026-04-26 00:32 -31.96289 -53.70989 35963 ft 354 kts 241°
2026-04-26 00:32 -32.01165 -53.77522 35961 ft 354 kts 241°
2026-04-26 00:33 -32.04435 -53.81908 35959 ft 354 kts 241°
2026-04-26 00:33 -32.07684 -53.86272 35958 ft 355 kts 241°
2026-04-26 00:34 -32.10923 -53.90633 35955 ft 355 kts 241°
2026-04-26 00:34 -32.14179 -53.95022 35959 ft 355 kts 241°
2026-04-26 00:35 -32.17435 -53.99417 35958 ft 356 kts 241°
2026-04-26 00:35 -32.20699 -54.03821 35961 ft 357 kts 241°
2026-04-26 00:36 -32.23976 -54.08259 35960 ft 358 kts 241°
2026-04-26 00:36 -32.27230 -54.12665 35959 ft 358 kts 240°
2026-04-26 00:37 -32.30611 -54.17040 35959 ft 362 kts 238°
2026-04-26 00:37 -32.34371 -54.21153 35965 ft 371 kts 233°
2026-04-26 00:38 -32.38498 -54.24916 35966 ft 381 kts 229°
2026-04-26 00:38 -32.43013 -54.28328 35964 ft 389 kts 226°
2026-04-26 00:39 -32.47650 -54.31603 35956 ft 389 kts 225°
2026-04-26 00:39 -32.52279 -54.34861 35955 ft 389 kts 225°
2026-04-26 00:40 -32.56938 -54.38142 35956 ft 386 kts 225°
2026-04-26 00:40 -32.59210 -54.39727 35955 ft 370 kts 225°
2026-04-26 00:40 -32.61406 -54.41263 35959 ft 366 kts 226°
2026-04-26 00:41 -32.65774 -54.44360 35957 ft 365 kts 226°
2026-04-26 00:41 -32.70114 -54.47434 35954 ft 365 kts 226°
2026-04-26 00:42 -32.74468 -54.50520 35962 ft 366 kts 226°